Skip Page Navigation
NASA JPL Caltech
NASA Logo - Jet Propulsion Laboratory + View the NASA Portal
+ Center for Near-Earth Object Studies
JPL Home Earth Solar System Stars & Galaxies Technology
JPL Solar System Dynamics
BODIES ORBITS EPHEMERIDES TOOLS PHYSICAL DATA DISCOVERY FAQ SITE MAP
IMPORTANT: The SSD Announcement email list is now available. Major changes are coming in the near future, including possible hostname and/or URL changes. To be notified of such changes, subscribe to this email list.

Please visit this page for more details.


JPL Small-Body Database Browser
Search: [ help ]  
233080 (2005 PG)
Classification: Mars-crossing Asteroid          SPK-ID: 2233080
Ephemeris | Orbit Diagram | Orbital Elements | Mission Design | Physical Parameters | Discovery Circumstances | Close-Approach Data ]

[ show orbit diagram ]
Orbital Elements at Epoch 2458600.5 (2019-Apr-27.0) TDB
Reference: JPL 18 (heliocentric ecliptic J2000)
 Element Value Uncertainty (1-sigma)   Units 
e .3464692802362581 4.6371e-08  
a 2.315895141262338 5.1947e-09 au
q 1.513508618566528 1.0897e-07 au
i 3.551533410290935 3.596e-06 deg
node 73.00079362238969 6.2486e-05 deg
peri 294.613935981426 6.2696e-05 deg
M 316.7996045893616 3.5924e-06 deg
tp 2458754.976345052754
(2019-Sep-28.47634505)
1.2847e-05 TDB
period 1287.291092833299
3.52
4.3312e-06
1.186e-08
d
yr
n .2796570270735331 9.4092e-10 deg/d
Q 3.118281663958147 6.9944e-09 au
  Orbit Determination Parameters
   # obs. used (total)      763  
   data-arc span      9751 days (26.70 yr)  
   first obs. used      1993-03-19  
   last obs. used      2019-11-29  
   planetary ephem.      DE431  
   SB-pert. ephem.      SB431-N16  
   condition code      0  
   norm. resid. RMS      .43621  
   source      ORB  
   producer      Otto Matic  
   solution date      2019-Dec-14 15:59:00  

Additional Information
 Earth MOID = .516487 au 
 Jupiter MOID = 2.34413 au 
 T_jup = 3.496 
[ show covariance matrix ]

Ephemeris | Orbit Diagram | Orbital Elements | Mission Design | Physical Parameters | Discovery Circumstances | Close-Approach Data ]

Physical Parameter Table
Parameter Symbol Value Units Sigma Reference Notes
absolute magnitude H 16.2   n/a MPO503131  

233080 (2005 PG)          Discovered 2005-Aug-02 by LINEAR at Socorro
Reference: 20100228/Numbers.arcLast Updated: 2010-03-03

[ show close-approach data ]
Alternate Designations
 2005 PG = 1998 XH68 
Ephemeris | Orbit Diagram | Orbital Elements | Mission Design | Physical Parameters | Discovery Circumstances | Close-Approach Data ]
ABOUT SSD CREDITS/AWARDS PRIVACY/COPYRIGHT GLOSSARY LINKS
FirstGov 2020-Jan-29 17:45 UT
(server date/time)  
NASA Home Page
Site Manager:   Ryan S. Park
Webmaster  Alan B. Chamberlin